Regional Weather Roundup
Issued by NWS

Home | Current Version | Previous Version | Graphics & Text | Print | Product List | Glossary On
Versions: 1 2 3 4 5 6 7 8 9 10 11 12 13 14 15 16 17 18 19 20 21 22 23 24 25 26 27 28 29 30 31 32 33 34 35 36 37 38 39 40 41 42 43 44 45 46 47 48 49 50
238
ASUS45 KTFX 221510
RWRMT
MONTANA REGIONAL WEATHER ROUNDUP
NATIONAL WEATHER SERVICE GREAT FALLS MT
900 AM MDT FRI SEP 22 2017

NOTE: "FAIR" INDICATES FEW OR NO CLOUDS BELOW 12000 FEET WITH NO
SIGNIFICANT WEATHER AND/OR OBSTRUCTIONS TO VISIBILITY.

MTZ001>007-043-221600-
WEST OF THE DIVIDE

CITY           SKY/WX    TMP DP  RH WIND       PRES   REMARKS
KALISPELL      CLOUDY    44  30  57 N14       30.02R
MISSOULA       LGT RAIN  41  38  89 CALM      29.99R
BUTTE          FLURRIES  33  30  88 W8        29.91S WCI  26
MULLAN PASS    CLOUDY    31  29  92 CALM      29.95S
ANACONDA         N/A     34  28  80 N10G18    29.95R WCI  26
DEER LODGE       N/A     36  28  75 N9        30.00R WCI  29
EUREKA           N/A     36  34  93 CALM      30.06R
HAMILTON         N/A     39  34  81 NW9       29.96R
LIBBY            N/A     36  36 100 SW3       30.06R
PLAINS           N/A     42  38  86 CALM      30.02R
$$

MTZ008-052>055-221600-
SOUTHWEST MONTANA

CITY           SKY/WX    TMP DP  RH WIND       PRES   REMARKS
BOZEMAN        CLOUDY    38  36  92 W13       29.90R WCI  30
DILLON         CLOUDY    35  32  88 NE14      29.87R WCI  26
W YELLOWSTONE  MIX PCPN  34  34 100 VRB5G28   29.85R
ENNIS          CLOUDY    36  32  87 N15G21    29.91S WCI  26
THREE FORKS      N/A     39  35  85 NE1       29.93R
TWIN BRIDGES     N/A     36  30  79 N17       29.87R WCI  26
$$

MTZ009-010-012-014-046-048-049-054-221600-
EAST SLOPES AND CENTRAL MONTANA

CITY           SKY/WX    TMP DP  RH WIND       PRES   REMARKS
CUT BANK       CLOUDY    35  33  92 N7        30.09F WCI  29
GREAT FALLS    MIX PCPN  35  33  92 N6        30.07R WCI  30
MALMSTROM AFB  DRIZZLE   36  36 100 N8        30.08R WCI  29
HELENA         LGT SNOW  36  32  85 N12       30.00S FOG     WCI  28
BOWMANS CRNR   LGT SNOW  31  31  99 N12       30.04R WCI  22
CHOTEAU          N/A     34  32  93 N7        30.11R WCI  28
FAIRFIELD      LGT RAIN  35  31  87 N9        30.08R WCI  28
POWER          LGT RAIN  34  33  95 N8        30.07R WCI  27
RAYNESFORD     LGT RAIN  34  34  99 N3        30.04S
ULM            LGT RAIN  35  35  99 N6        30.07R WCI  30
$$

MTZ011-013-016-021-045-047-050-051-221600-
NORTH CENTRAL MONTANA

CITY           SKY/WX    TMP DP  RH WIND       PRES   REMARKS
HAVRE          CLOUDY    38  34  85 NW7       30.09R
LEWISTOWN      CLOUDY    35  34  96 CALM      30.03R
N BAR RANCH    LGT SNOW  32  32 100 CALM      30.05R
CHINOOK          N/A     39  34  81 W5        30.10R
DENTON           N/A     36  35  94 NW10      30.03R WCI  29
GEYSER         LGT RAIN  34  33  94 N12       30.04S WCI  26
GRASS RANGE    LGT SNOW  33  33 100 CALM      30.02R
JUDITH GAP     LGT RAIN  32  32  99 N14       30.00R VSB 1/2 WCI  22
WINIFRED       PTSUNNY   36  35  97 E12       30.04R WCI  28
$$

MTZ017>020-022>027-061-062-221600-
NORTHEAST MONTANA

CITY           SKY/WX    TMP DP  RH WIND       PRES   REMARKS
GLASGOW        LGT RAIN  41  38  89 NW8       30.05R
JORDAN           N/A     42  38  85 N13       30.04R
SIDNEY         CLOUDY    47  38  71 N12       29.99S
WOLF POINT     CLOUDY    47  37  68 N3        30.05R
MALTA          CLOUDY    41  37  87 CALM      30.08R
POPLAR           N/A     46  37  71 CALM      30.06R
SCOBEY           N/A     43  32  65 NW8       30.00R
$$

MTZ028>42-056>058-221600-
SOUTHCENTRAL AND SOUTHEAST MONTANA

CITY           SKY/WX    TMP DP  RH WIND       PRES   REMARKS
BAKER          CLOUDY    46  37  71 N15       29.95R
BILLINGS       LGT RAIN  40  38  93 NE13      29.99R
LIVINGSTON     CLOUDY    33  31  92 E22       29.95R WCI  21
MILES CITY     CLOUDY    48  34  58 N9        29.99S
BIG TIMBER     FOG       32  32 100 NE7       30.02  VSB 3/4 WCI  26
EKALAKA          N/A     45  36  70 N10       29.93R
HARLOWTON      SNOWSHWR  32  31  98 MISG      30.01R VSB 1/2
LAUREL           N/A     39  39 100 NE13      29.99S WCI  32
$$

REGIONAL REPORTS...DAKOTAS

CITY           SKY/WX    TMP DP  RH WIND       PRES   REMARKS
WILLISTON      CLOUDY    46  38  73 N9        30.00R
MINOT          CLOUDY    50  40  68 N16       29.90S
DICKINSON      LGT RAIN  47  42  83 N14       29.89R
BEACH          CLOUDY    45  37  76 N15       29.97R
CROSBY         CLOUDY    43  41  93 N9        30.00S
TIOGA          RAIN      45  41  87 N15G22    29.97S
WATFORD CITY   CLOUDY    48  36  61 N14       29.94F
BISMARCK       CLOUDY    55  43  63 NE20G28   29.78F
GRAND FORKS    CLOUDY    60  54  80 N18       29.80F
FARGO          CLOUDY    65  61  87 NE8       29.75S
BUFFALO SD       N/A     51  36  56 N14       29.81R
RAPID CITY     CLOUDY    52  39  62 N23G35    29.80R
$$

REGIONAL REPORTS...WYOMING/IDAHO/WASHINGTON

CITY           SKY/WX    TMP DP  RH WIND       PRES   REMARKS
GILLETTE       CLOUDY    46  36  68 N20       29.90R
SHERIDAN       CLOUDY    42  40  92 W10       29.99R
BUFFALO WY     CLOUDY    40  36  86 NW17      29.97R
CODY           LGT SNOW  34  32  93 NE5       29.97R FOG
IDAHO FALLS    LGT RAIN  40  39  97 SW13      29.88R
SALMON         LGT RAIN  41  38  89 CALM      29.88R
BOISE          LGT RAIN  42  40  92 W8        29.91R
SPOKANE        MOSUNNY   38  38 100 NE3       30.00R FOG
$$

REGIONAL REPORTS...ALBERTA

CITY           SKY/WX    TMP DP  RH WIND       PRES   REMARKS
EDMONTON       CLOUDY    39  37  93 N2        30.14S
CALGARY        PTSUNNY   36  32  87 N7        30.09R WCI  30
LETHBRIDGE     CLOUDY    37  36  93 NW9       30.12R WCI  31
MEDICINE HAT   CLOUDY    41  37  87 NW6       30.10S
$$

REGIONAL REPORTS...SASKATCHEWAN

CITY           SKY/WX    TMP DP  RH WIND       PRES   REMARKS
SWIFT CURRENT    N/A     37  36  93 N7        30.05  FOG
REGINA         CLOUDY    41  39  93 N9        30.03R
SASKATOON      CLOUDY    41  39  93 N5        30.09R
$$




USA.gov is the U.S. government's official web portal to all federal, state and local government web resources and services.